Location: Ch?enovice
(49.7164°N, 15.2160°E)
Time: 05:39:10
(UTC+00:00)

Cosmos 2278 - Pass Details

Date: 23 May 2024
Orbit: 837 x 853 km, 71.1° (Epoch: 15 June)

Event Time Altitude Azimuth Distance (km) Brightness Sun altitude
Rises 00:33:37 0° 329° (NNW) 3,432 7.4 -16.4°
Reaches altitude 10° 00:36:05 10° 328° (NNW) 2,493 6.6 -16.2°
Maximum altitude 00:41:47 72° 245° (WSW) 901 3.7 -15.8°
Enters shadow 00:46:55 13° 163° (SSE) 2,281 5.5 -15.5°
